Location: *
(60.1759°S, 155.0663°W)
Time: 00:56:18
(UTC+00:00)

METEOR-M - Pass Details

Date: 17 September 2019
Orbit: 816 x 820 km, 98.4° (Epoch: 21 October)

Event Time Altitude Azimuth Distance (km) Brightness Sun altitude
Rises 14:34:32 0° 17° (NNE) 3,354 7.3 -14.1°
Reaches altitude 10° 14:36:52 10° 16° (NNE) 2,428 6.5 -13.9°
Maximum altitude 14:42:16 82° 288° (WNW) 846 4.1 -13.2°
Drops below altitude 10° 14:47:44 10° 199° (SSW) 2,454 6.6 -12.6°
Sets 14:50:06 0° 197° (SSW) 3,392 7.4 -12.3°
